Tracking 29892 objects as of 21-Nov-2024
HD Live streaming from Space Station
objects crossing your sky now

THORAD AGENA D DEB

Track THORAD AGENA D DEB now!
10-day predictions


NORAD ID: 10136
Int'l Code: 1970-025NQ
Perigee: 1,071.5 km
Apogee: 1,073.2 km
Inclination: 100.1 °
Period: 106.5 minutes
Semi major axis: 7443 km
RCS: 0.0546 m2 (small)
Launch date: April 8, 1970
Source: United States (US)
Launch site: AIR FORCE WESTERN TEST RANGE (AFWTR)

Note: This is SATELLITE DEBRIS
Your satellite tracking list
Your tracking list is empty




NASA's NSSDC Master Catalog

Two Line Element Set (TLE):
1 10136U 70025NQ  24325.85179351  .00000084  00000-0  19899-3 0  9991
2 10136 100.0845 279.8308 0001113 359.8275  29.4930 13.51919852693259
Source of the keplerian elements: AFSPC